sat.trackr.live / text

‹ back to catalog

STARLINK-4345

NORAD 53049 · 2022-077G

PAYLOAD ACTIVE UNKNOWN

§ Identity

Operator
Country
US
Launch date
2022-07-11
Launch site
AFWTR
Launch vehicle
Mass (kg)
RCS (m²)

Purposes: comms

External: N2YO · Heavens-Above · Gunter

§ Orbital elements

Epoch: 2026-09-19T18:14:12.837984Z

Period
93.91 min
Inclination
97.2850°
Eccentricity
0.0001600
Mean motion
15.33435743 rev/d
Perigee alt
464.5 km
Apogee alt
466.7 km
Semi-major
6,843.7 km
B*
3.1821e-5
RAAN
77.5518°
Arg perigee
88.7312°
Mean anomaly
271.4114°
Rev number
23,017

§ Raw data

STARLINK-43451 53049U 22077G   26262.75987081  .00000952  00000+0  31821-4 0  99962 53049  97.2850  77.5518 0001600  88.7312 271.4114 15.33435743230174

JSON: /api/v1/satellites/53049 · /tle

For live sub-satellite position, see the globe view (requires WebGL).

§ Visibility from observer

Set your observer location to see the next 7 days of passes ≥ 10°. The values pass through the URL so the page stays shareable.

No JS? Fill the form by hand. The geolocation button needs JavaScript.